World > North America > United States > Utah

Elwood, Utah Regional Weather

Lat: 41.68N, Lon: 112.09W
Wx Zone: UTZ002Web Search

Helpful Tip: Abbreviated, 7 Day, 14 Day Forecasts. There is a weather forecast for every taste.

Feedback


°F Click to change Elwood hourly weather to Imperial units.Click to change Elwood hourly weather to Metric units. °C
Elwood Weather Map
UTC Time: 4/16/2021, 10:21
Your Time:

Elwood, UT Regional Weather

Expires:202104161100;;635242
ASUS45 KSLC 161010
RWRUT 

UTAH REGIONAL WEATHER ROUNDUP
NATIONAL WEATHER SERVICE SALT LAKE CITY UT
400 AM MDT FRI APR 16 2021


UTZ001>011-023>025-161100-

NORTHERN UTAH
  
CITY           SKY/WX    TMP DP  RH WIND       PRES   REMARKS
BRIGHAM CITY   CLOUDY    38  34  83 CALM      30.06S                  
HILL AFB       LGT RAIN  36  35  99 SE5       30.05S WCI  32          
LOGAN          MIX PCPN  35  34  96 NW6       30.07R WCI  30          
OGDEN          CLOUDY    40  35  83 S8        30.05R WCI  34          
SALT LAKE CITY LGT RAIN  37  35  92 E5        30.06S WCI  33          
TOOELE VALLEY  CLOUDY    37  37 100 SE7       30.07S WCI  32          
WENDOVER       LGT RAIN  40  34  79 N7        30.08S                  
HEBER CITY     CLOUDY    32  32 100 CALM      30.03S                  
WEST JORDAN    CLOUDY    36  36 100 CALM      30.07S                  

$$


SKY/WX - Weather  TMP - Temperature  DP - Dew Point  RH - Relative Humidity
WIND - Wind Direction/Speed PRES - Barometric Pressure VSB - Visibility
WCI - Wind Chill Index E13G22 Wind - East Wind 13 mph/Gusts of 22 mph